This demonstration page uses our WeatherBlox Daily Observations layout. Learn more.

Left ArrowRight Arrow

39.92423, -83.80882

Hourly Observations for April 16, 2021

Temp ( °F °C ) Dew Point ( °F °C ) Humidity (%) Winds ( mph kmh ) Pressure ( in mb ) Visibility ( mi km ) Precip ( " mm )
12:56 am 00:56 Clear 39 3.9 35 1.7 86 86 WNW 7 11 30 1016 10 16.0934 0 0
1:56 am 01:56 Clear 38 3.3 35 1.7 89 89 W 9 15 29.99 1016 10 16.0934 0 0
2:56 am 02:56 Clear 37 2.8 34 1.1 89 89 W 9 15 29.98 1015 10 16.0934 0 0
3:56 am 03:56 Clear 37 2.8 34 1.1 89 89 WNW 8 13 29.98 1015 10 16.0934 0 0
4:56 am 04:56 Clear 35 1.7 34 1.1 96 96 WNW 8 13 29.96 1015 10 16.0934 0 0
5:56 am 05:56 Mostly Cloudy 34 1.1 34 1.1 100 100 W 8 13 29.96 1014 10 16.0934 0 0
6:56 am 06:56 Cloudy 37 2.8 35 1.7 93 93 W 9 15 29.96 1015 10 16.0934 0 0
7:56 am 07:56 Cloudy 39 3.9 35 1.7 86 86 WNW 8 13 29.97 1015 10 16.0934 0 0
8:56 am 08:56 Sunny 43 6.1 37 2.8 80 80 WNW 13 20 29.96 1015 10 16.0934 0 0
9:56 am 09:56 Mostly Sunny 46 7.8 37 2.8 71 71 NW 16 26 29.95 1014 10 16.0934 0 0
10:56 am 10:56 Mostly Cloudy 49 9.4 38 3.3 66 66 WNW 14 22 29.96 1015 10 16.0934 0 0
11:23 am 11:23 Cloudy 48 9 37 3 66 66 WNW 12 19 29.96 1014 10 16.0934 0 0
11:56 am 11:56 Cloudy 51 10.6 39 3.9 64 64 WNW 14 22 29.95 1014 10 16.0934 0 0
12:56 pm 12:56 Cloudy 52 11.1 39 3.9 61 61 W 13 20 29.95 1014 10 16.0934 0 0
1:56 pm 13:56 Cloudy 55 12.8 40 4.4 57 57 WNW 14 22 29.92 1013 10 16.0934 0 0
2:56 pm 14:56 Mostly Cloudy 56 13.3 41 5 57 57 WNW 9 15 29.9 1013 10 16.0934 0 0
3:56 pm 15:56 Mostly Cloudy 58 14.4 40 4.4 51 51 NW 10 17 29.88 1012 10 16.0934 0 0
4:56 pm 16:56 Mostly Cloudy 60 15.6 40 4.4 47 47 NW 8 13 29.88 1012 10 16.0934 0 0
5:56 pm 17:56 Partly Cloudy 58 14.4 38 3.3 48 48 WNW 12 19 29.89 1012 10 16.0934 0 0
6:56 pm 18:56 Mostly Cloudy 59 15 37 2.8 44 44 WNW 12 19 29.88 1012 10 16.0934 0 0
7:56 pm 19:56 Mostly Sunny 54 12.2 38 3.3 55 55 NW 6 9 29.89 1012 10 16.0934 0 0
8:56 pm 20:56 Clear 52 11.1 37 2.8 57 57 NW 5 7 29.91 1013 10 16.0934 0 0
9:56 pm 21:56 Clear 48 8.9 37 2.8 66 66 NW 3 6 29.91 1013 10 16.0934 0 0
10:56 pm 22:56 Clear 46 7.8 38 3.3 73 73 NW 3 6 29.92 1013 10 16.0934 0 0
11:56 pm 23:56 Clear 46 7.8 37 2.8 71 71 NNW 6 9 29.91 1013 10 16.0934 0 0

Powered by AerisWeather